FLOCK 4P-5 (44818 NORAD) Tracking and Keplerian Element Data

This shows tracking and keplerian element data for the satellite.

Feedback or suggestion? Click here.




ElementValue
Catalog44818
NameFLOCK 4P-5
Epoch Orbit854
Epoch Day22.43271085
Epoch Year2020
RAAN84.2798
Inclination97.5168
Eccentricity0.001215
Argument of Perigee51.3797
Mean Anonmoly308.8524
Mean Motion15.19822234
Decay Rate5.11E-06
L11 44818U 19081Q 20022.43271085 .00000511 00000-0 27065-4 0 9991
L22 44818 97.5168 84.2798 0012150 51.3797 308.8524 15.19822234 8546

Live tracking and technical data element details for FLOCK 4P-5 (NORAD 44818). FLOCK 4P-5 can be tracked NOW for your location showing map with azimuth and elevation plus other details from your city location.

Track the satellite on the map from your city or location and see movement details for azimuth, elevation, latitude, longitude, range, height, and movement on the map or in text.







IsCatalogInMostPopularTable: catalog: 44818, numindb: 10
Update: records affected: 1



GetName: 44818 FLOCK 4P-5

Hit Count: updated at: Fri, 24 Jan 2020 14:24:11 GMT